EW1799 Weather Reports


Display with metric or nautical units.
time (UTC)temp
F
wind
direction
speed
MPH
gust
MPH
rain 1hr
in
rain 24hr
in
rain mn
in
humidity
%
barometer
mb
20220812190050 77 84 0.0 10.0 0.00 0.00 0.00 40 1009.0
20220812184609 76 44 1.0 10.0 0.00 0.00 0.00 39 1009.1
20220812183044 75 360 3.0 11.0 0.00 0.00 0.00 41 1009.2
20220812181532 75 46 3.0 11.0 0.00 0.00 0.00 41 1009.3
20220812180040 75 51 0.0 9.0 0.00 0.00 0.00 41 1009.4
20220812174538 75 57 1.0 11.0 0.00 0.00 0.00 40 1009.5
20220812173038 74 316 1.0 9.0 0.00 0.00 0.00 42 1009.7
20220812171534 73 23 6.0 11.0 0.00 0.00 0.00 43 1009.9
20220812170028 73 26 1.0 8.0 0.00 0.00 0.00 44 1010.1
20220812164524 72 68 0.0 10.0 0.00 0.00 0.00 44 1010.1
20220812163044 71 90 1.0 13.0 0.00 0.00 0.00 46 1010.1
20220812161531 72 24 4.0 10.0 0.00 0.00 0.00 44 1010.1
20220812160018 71 82 3.0 10.0 0.00 0.00 0.00 45 1010.3
20220812154514 71 49 3.0 9.0 0.00 0.00 0.00 46 1010.3
20220812153008 70 11 0.0 9.0 0.00 0.00 0.00 45 1010.2
20220812151559 70 348 0.0 7.0 0.00 0.00 0.00 45 1010.2
20220812150109 70 17 4.0 9.0 0.00 0.00 0.00 46 1010.3
20220812144558 69 20 0.0 6.0 0.00 0.00 0.00 46 1010.2
20220812143051 67 194 0.0 0.0 0.00 0.00 0.00 50 1010.2
20220812141601 67 192 0.0 0.0 0.00 0.00 0.00 48 1010.0
20220812140042 68 155 0.0 0.0 0.00 0.00 0.00 47 1009.9
20220812134617 67 74 0.0 2.0 0.00 0.00 0.00 47 1009.8
20220812133054 66 60 0.0 2.0 0.00 0.00 0.00 50 1009.5
20220812131545 64 13 0.0 4.0 0.00 0.00 0.00 53 1009.4
20220812130028 63 17 0.0 7.0 0.00 0.00 0.00 52 1009.4
20220812124525 64 42 1.0 7.0 0.00 0.00 0.00 52 1009.2
20220812123035 64 47 1.0 5.0 0.00 0.00 0.00 50 1009.1
20220812121527 65 65 0.0 3.0 0.00 0.00 0.00 46 1008.8
20220812120025 64 134 0.0 0.0 0.00 0.00 0.00 46 1008.5
20220812114533 64 134 0.0 0.0 0.00 0.00 0.00 47 1008.3
20220812113021 64 134 0.0 0.0 0.00 0.00 0.00 47 1008.1
20220812111536 65 134 0.0 0.0 0.00 0.00 0.00 45 1008.1
20220812110028 67 79 0.0 0.0 0.00 0.00 0.00 42 1008.0
20220812104544 66 72 0.0 4.0 0.00 0.00 0.00 43 1007.9
20220812103027 66 251 0.0 0.0 0.00 0.00 0.00 44 1007.8
20220812101512 66 251 0.0 0.0 0.00 0.00 0.00 44 1007.8
20220812100015 67 251 0.0 0.0 0.00 0.00 0.00 43 1007.9
20220812094514 67 251 0.0 0.0 0.00 0.00 0.00 43 1007.9
20220812093009 66 251 0.0 0.0 0.00 0.00 0.00 44 1008.1
20220812091524 67 251 0.0 1.0 0.00 0.00 0.00 41 1008.1
20220812090008 67 286 0.0 0.0 0.00 0.00 0.00 40 1007.9
20220812084507 67 286 0.0 0.0 0.00 0.00 0.00 40 1007.8
20220812083001 66 286 0.0 0.0 0.00 0.00 0.00 40 1007.7
20220812081600 68 286 0.0 0.0 0.00 0.00 0.00 38 1007.6
20220812080103 69 286 0.0 0.0 0.00 0.00 0.00 39 1007.5
20220812074607 69 286 0.0 0.0 0.00 0.00 0.00 40 1007.5
20220812073006 67 284 0.0 0.0 0.00 0.00 0.00 43 1007.5
20220812071503 67 273 0.0 0.0 0.00 0.00 0.00 43 1007.5
20220812070101 68 273 0.0 3.0 0.00 0.00 0.00 43 1007.5
20220812064610 69 27 0.0 0.0 0.00 0.00 0.00 40 1007.6
20220812063058 70 27 0.0 0.0 0.00 0.00 0.00 39 1007.8
20220812061555 69 82 0.0 1.0 0.00 0.00 0.00 41 1007.9
20220812060102 68 221 0.0 6.0 0.00 0.00 0.00 42 1007.7
20220812054554 68 261 0.0 3.0 0.00 0.00 0.00 43 1007.6
20220812053124 68 231 1.0 5.0 0.00 0.00 0.00 44 1007.5
20220812051604 69 246 0.0 0.0 0.00 0.00 0.00 43 1007.5
20220812050049 69 246 0.0 0.0 0.00 0.00 0.00 42 1007.6
20220812044601 70 246 0.0 0.0 0.00 0.00 0.00 42 1007.5
20220812043048 70 256 0.0 8.0 0.00 0.00 0.00 42 1007.5
20220812041615 71 229 0.0 3.0 0.00 0.00 0.00 41 1007.5
20220812040048 70 244 0.0 6.0 0.00 0.00 0.00 41 1007.2
20220812034556 72 246 0.0 5.0 0.00 0.00 0.00 39 1007.1
20220812033056 73 241 0.0 2.0 0.00 0.00 0.00 37 1007.2
20220812031554 73 249 0.0 0.0 0.00 0.00 0.00 38 1007.1
20220812030046 73 249 0.0 3.0 0.00 0.00 0.00 37 1007.1
20220812024551 75 355 0.0 0.0 0.00 0.00 0.00 35 1006.8
20220812023045 75 355 0.0 0.0 0.00 0.00 0.00 35 1006.7
20220812021602 75 355 0.0 0.0 0.00 0.00 0.00 34 1006.5
20220812020045 77 355 0.0 0.0 0.00 0.00 0.00 33 1006.4
20220812014545 78 355 0.0 0.0 0.00 0.00 0.00 33 1006.2
20220812013054 78 355 0.0 0.0 0.00 0.00 0.00 33 1006.2
20220812011553 79 355 0.0 0.0 0.00 0.00 0.00 33 1006.2
20220812010053 79 355 0.0 4.0 0.00 0.00 0.00 32 1006.2
20220812004552 80 342 0.0 3.0 0.00 0.00 0.00 30 1006.2
20220812003042 80 348 0.0 1.0 0.00 0.00 0.00 31 1006.4
20220812001554 81 27 3.0 6.0 0.00 0.00 0.00 28 1006.4
20220812000046 82 112 0.0 5.0 0.00 0.00 0.00 26 1006.4
20220811234539 83 126 0.0 2.0 0.00 0.00 0.00 26 1006.5
20220811233038 82 5 0.0 5.0 0.00 0.00 0.00 27 1006.6
20220811231540 82 70 3.0 9.0 0.00 0.00 0.00 27 1006.7
20220811230039 81 76 2.0 7.0 0.00 0.00 0.00 29 1006.9
20220811224537 82 11 2.0 0.0 0.00 0.00 0.00 29 1006.8
20220811223047 82 67 0.0 10.0 0.00 0.00 0.00 29 1006.8
20220811221539 83 43 1.0 9.0 0.00 0.00 0.00 29 1006.9
20220811220140 84 104 3.0 8.0 0.00 0.00 0.00 28 1007.0
20220811214536 83 62 1.0 11.0 0.00 0.00 0.00 29 1007.1
20220811213035 83 360 5.0 11.0 0.00 0.00 0.00 28 1007.3
20220811211536 81 15 0.0 11.0 0.00 0.00 0.00 31 1007.5
20220811210036 81 101 5.0 10.0 0.00 0.00 0.00 29 1007.5
20220811204557 81 78 2.0 8.0 0.00 0.00 0.00 32 1007.6
20220811203054 81 36 6.0 13.0 0.00 0.00 0.00 33 1007.7
20220811201537 80 65 3.0 11.0 0.00 0.00 0.00 33 1007.8
20220811200023 80 19 7.0 10.0 0.00 0.00 0.00 35 1008.1
20220811194522 81 330 0.0 9.0 0.00 0.00 0.00 33 1008.4
20220811193022 80 103 4.0 10.0 0.00 0.00 0.00 33 1008.5
20220811191521 81 93 3.0 12.0 0.00 0.00 0.00 31 1008.5